Wind_Speed
16 16 18 20 21 21 21 21 22 22 20 17 15 13 10 7 11 12 5 2 5 6 3 5 5 3 3 4 1 3 5 6 8 6 7 6 4 3 4 2 3 2 2 2 3 4 3 5 3 4 2 4 5 7 12 13 10 6 3 4 8 7 1 1 4 3 6 12 7 8 8 8 4 3 2 2 4 4 3 3 1 1 3 5 4 3 1
16 15 17 20 20 20 20 20 20 21 22 21 19 16 13 13 16 12 2 3 4 5 2 2 1 3 1 1 3 3 5 8 9 8 7 5 3 3 3 2 2 3 3 1 3 2 4 3 2 4 1 3 4 6 11 11 7 4 2 3 5 5 2 2 3 4 6 7 2 2 2 2 2 4 5 4 8 7 2 2 3 4 3 5 5 2 2
15 15 16 19 20 19 19 18 19 20 20 19 19 19 16 13 12 9 3 5 10 5 4 3 2 3 1 2 3 3 4 5 5 7 7 5 5 4 2 1 1 2 2 1 2 7 5 0 5 4 3 3 3 5 9 9 6 4 4 6 5 2 1 1 3 2 3 2 0 0 3 3 2 5 6 7 11 8 1 3 4 4 3 4 6 5 3
15 14 16 19 19 18 17 16 17 18 18 17 17 18 13 6 5 6 5 5 6 2 6 5 3 3 1 2 2 1 4 6 4 5 5 4 6 6 2 1 2 4 5 4 3 6 8 3 4 3 3 3 3 5 7 9 7 7 7 8 6 1 1 0 4 3 1 3 4 3 4 4 3 5 8 10 11 6 2 4 3 4 4 4 5 10 11
14 14 16 18 19 18 17 15 15 15 15 16 16 16 10 4 4 3 3 7 7 7 9 8 5 4 4 2 3 3 4 4 5 5 4 3 5 4 3 3 3 6 6 3 5 7 5 2 4 5 3 3 2 2 3 9 9 10 8 9 5 2 3 2 1 2 4 6 6 7 7 6 4 6 9 12 13 9 0 4 4 6 5 4 6 13 14
14 14 15 18 19 18 16 15 14 11 11 15 16 13 9 5 8 10 6 3 4 7 7 7 7 7 6 3 3 5 6 4 5 5 4 4 5 3 2 2 4 7 6 4 4 5 4 2 5 6 6 2 2 1 5 11 12 11 9 9 5 1 2 5 4 3 3 7 8 7 8 6 6 8 9 14 17 10 1 3 1 4 5 6 10 14 13
14 14 14 17 19 18 17 16 13 10 8 12 14 10 11 11 11 14 15 9 4 4 5 3 7 6 5 3 4 6 7 6 6 5 5 5 4 5 3 6 8 8 7 5 3 4 3 1 3 4 5 6 4 3 5 8 12 10 6 5 5 2 2 6 7 4 4 7 7 5 8 7 7 8 9 13 14 8 8 10 7 6 10 13 13 11 10
13 14 13 15 18 17 17 16 15 11 7 9 14 12 13 14 10 13 18 14 7 5 7 3 5 2 1 1 3 4 7 8 7 7 8 5 4 5 5 9 9 8 7 6 5 4 3 1 2 3 4 5 4 3 3 4 9 8 4 3 4 3 3 6 6 6 7 8 6 4 6 6 7 8 10 12 11 9 11 10 10 10 10 13 13 11 7
13 13 13 14 16 17 17 16 15 14 10 9 13 14 14 11 7 9 12 8 5 6 7 3 4 2 1 2 3 4 7 5 4 5 7 7 6 7 7 7 5 5 6 6 5 5 5 4 4 6 6 5 5 3 3 3 5 5 4 4 3 3 3 4 3 3 3 7 7 6 4 4 6 6 8 11 9 5 5 8 8 7 9 11 11 8 4
12 12 12 12 14 16 16 16 16 15 12 10 13 16 17 11 4 9 11 5 6 7 5 1 5 3 1 3 4 6 7 5 4 2 1 3 6 6 6 6 4 4 5 5 5 6 7 5 5 6 6 5 5 4 2 2 4 4 3 3 3 3 3 3 2 1 3 5 7 7 2 3 4 3 7 11 9 5 2 8 10 8 9 8 6 5 3
11 11 11 11 12 14 15 15 16 16 14 14 14 16 20 17 9 12 12 5 7 9 2 4 4 2 2 5 7 6 5 4 4 2 1 1 4 5 6 6 4 3 4 4 3 3 4 4 4 5 5 4 4 3 1 5 6 2 2 2 3 4 3 3 2 0 3 6 6 2 4 2 2 3 7 10 11 9 6 8 11 10 7 5 6 5 4
11 11 10 10 10 12 13 13 14 15 14 14 14 15 18 18 11 11 10 3 6 9 2 4 2 1 4 7 7 6 5 6 6 6 4 4 5 7 8 7 5 3 2 1 1 1 2 2 2 2 4 4 4 5 2 5 5 1 4 4 3 5 4 3 2 1 2 5 4 2 3 1 1 5 7 6 8 12 13 10 9 11 11 10 9 6 7
10 10 10 9 9 10 11 11 12 13 12 11 12 14 17 16 11 11 10 3 4 8 4 4 3 6 9 9 7 5 7 8 6 6 5 3 4 8 8 7 5 3 1 1 2 4 4 2 2 1 2 2 3 6 3 4 3 2 5 5 3 4 3 2 3 2 1 3 2 2 2 2 4 5 5 5 5 6 9 8 7 9 11 12 10 7 7
9 9 9 9 8 8 9 10 10 10 11 11 10 11 14 14 13 13 11 4 5 9 8 4 3 7 9 7 4 3 5 5 3 4 5 4 5 9 8 6 5 4 3 1 1 3 2 1 2 1 1 1 0 2 3 3 1 1 2 5 4 3 3 2 2 2 1 1 0 1 1 2 4 4 4 4 4 2 3 5 4 5 9 13 12 10 10
9 9 9 9 8 8 8 8 8 8 10 10 10 10 12 13 14 12 9 5 6 7 8 7 5 7 8 4 1 1 2 2 2 3 4 4 3 8 6 5 4 3 3 2 2 2 1 1 1 1 1 1 1 0 2 2 1 3 4 3 3 2 2 3 2 2 3 2 2 1 2 0 2 3 5 8 9 6 5 5 2 2 11 18 14 12 15
8 8 9 9 8 7 7 7 8 7 8 8 9 10 11 12 13 10 8 7 5 5 5 6 6 6 5 2 3 2 1 1 1 2 2 2 2 6 6 4 5 4 4 3 2 2 2 2 1 0 1 2 1 1 0 2 2 1 5 4 1 0 1 2 1 2 3 2 2 1 2 1 3 3 5 10 11 7 6 5 1 2 13 21 16 12 15
8 8 8 8 8 7 6 7 7 7 7 8 8 8 10 12 13 11 9 10 8 9 5 4 4 4 1 2 1 0 1 1 1 1 1 1 2 2 5 3 2 3 5 3 2 2 2 2 1 1 1 2 2 2 1 1 1 0 3 3 1 1 1 1 1 2 3 2 2 2 1 1 2 1 6 9 7 4 5 3 3 4 14 20 17 16 16
7 8 8 8 8 7 7 6 6 6 7 7 7 8 8 11 13 10 8 10 8 8 7 7 6 6 5 2 3 4 3 3 2 1 1 2 1 1 2 3 2 2 2 3 2 2 2 2 1 1 1 1 1 2 2 1 1 2 1 1 0 1 0 2 2 3 3 2 2 1 1 1 2 5 8 7 5 4 5 2 6 0 12 16 16 19 18
7 7 8 7 7 7 7 7 6 6 6 6 6 7 7 9 12 11 9 11 8 6 8 10 7 6 5 4 4 4 4 5 2 1 1 1 2 1 1 1 1 1 1 1 2 2 2 1 1 0 1 1 1 2 2 1 1 2 2 2 1 1 1 1 3 3 2 2 2 1 1 1 5 8 8 7 4 1 2 1 4 10 16 15 13 14 15
6 7 7 7 7 7 7 7 6 5 6 6 5 6 7 9 12 11 10 12 12 10 9 9 8 8 7 4 5 6 4 4 3 3 4 1 3 2 3 1 1 1 1 1 2 2 1 2 2 2 0 1 1 1 2 2 2 2 1 2 1 1 0 1 2 2 2 2 1 0 1 1 6 6 5 6 2 4 4 7 13 17 18 16 13 11 16
6 6 7 7 7 6 6 6 6 5 6 5 5 5 6 7 10 10 9 12 12 10 7 4 7 11 10 6 7 7 5 5 5 4 6 4 2 1 2 0 2 2 1 1 1 1 1 2 2 2 2 1 1 0 1 1 3 4 3 0 1 1 1 1 2 1 1 1 1 2 3 2 8 7 4 5 6 7 8 11 14 15 14 15 18 18 16
6 6 7 7 7 7 6 5 5 5 5 5 5 3 2 4 6 7 9 10 9 9 10 9 8 10 10 8 7 5 5 6 6 4 5 6 3 1 1 2 3 1 4 3 1 1 3 2 2 2 3 1 0 1 1 1 1 1 3 2 1 1 2 3 1 1 1 1 3 4 3 4 12 13 10 11 10 7 8 11 11 11 10 10 14 18 18
6 6 6 6 6 6 6 5 5 4 4 5 5 4 5 6 6 6 7 8 8 10 11 9 8 10 11 10 7 4 5 6 3 2 3 5 5 3 2 1 2 3 5 5 2 3 3 2 2 3 2 1 1 3 3 1 1 1 2 4 4 4 4 5 2 1 2 1 8 10 7 7 13 15 12 12 11 9 9 10 8 7 6 5 6 8 12
6 6 6 6 6 6 6 5 5 4 4 4 4 4 5 6 6 7 7 6 8 10 8 5 7 8 5 2 3 4 4 5 5 3 4 5 4 3 2 6 6 5 7 7 4 3 2 2 2 1 1 2 2 1 2 2 1 3 2 2 3 1 2 2 1 1 2 1 4 8 10 10 12 15 12 10 9 9 8 7 7 8 6 6 7 7 8
6 6 6 6 5 6 6 5 5 4 3 4 4 4 5 6 7 8 8 6 7 7 5 6 7 5 2 3 3 4 3 3 3 3 4 6 6 5 3 5 3 3 6 7 5 3 2 1 1 1 2 1 2 1 2 2 1 2 2 1 1 3 4 2 0 1 2 2 5 6 6 11 11 14 14 10 8 7 5 4 7 10 9 8 9 9 8
6 6 6 5 5 6 6 5 5 5 3 3 4 4 4 6 6 6 6 7 7 5 5 5 5 3 4 7 5 1 1 1 2 4 4 4 5 6 4 1 1 2 4 3 1 2 2 2 2 1 2 2 4 2 2 3 2 1 1 0 2 1 2 1 1 3 2 1 8 12 3 7 7 7 9 10 10 10 8 5 6 10 12 12 10 8 8
7 6 6 5 5 5 6 5 5 5 4 3 3 3 4 6 7 6 6 6 5 2 3 4 6 7 9 9 5 3 2 3 5 6 6 6 6 6 7 5 3 2 2 2 2 2 2 2 1 1 1 4 4 3 3 3 2 1 2 2 1 1 0 1 2 2 2 1 3 7 3 1 2 7 5 4 7 10 12 11 8 9 12 14 11 8 6
7 7 6 5 6 6 6 6 5 5 4 3 3 3 5 5 5 4 4 4 3 1 3 9 12 12 11 8 4 4 5 4 4 5 6 7 7 6 6 7 6 5 4 4 4 2 2 2 1 1 2 3 2 2 3 3 1 2 3 2 2 3 3 3 3 3 4 4 2 2 3 3 3 6 5 3 3 2 8 12 14 14 13 13 14 14 11
7 7 6 5 6 6 6 5 5 5 4 4 3 2 3 2 1 3 4 3 2 2 5 10 10 9 8 5 3 3 4 2 3 5 5 5 6 7 7 7 6 6 5 4 3 2 2 2 1 2 1 1 0 1 2 2 2 3 1 4 4 2 3 4 4 3 4 4 3 2 4 5 4 5 6 6 5 4 1 4 10 14 15 16 17 17 16
7 6 6 5 6 6 6 5 5 5 4 4 3 1 1 3 2 1 3 3 3 4 5 5 5 7 10 9 7 7 6 4 3 4 4 4 3 4 5 6 6 5 5 4 2 1 1 1 1 1 1 2 1 1 1 2 3 2 3 5 5 4 3 4 4 3 2 2 2 3 5 8 8 9 9 9 8 8 7 6 6 7 11 15 16 17 19
7 6 5 5 6 6 5 5 5 4 4 4 3 1 2 2 3 3 3 4 4 4 4 4 7 10 10 8 5 5 5 5 4 3 3 3 3 3 2 2 2 2 3 4 3 1 2 2 2 3 3 4 3 2 1 2 4 3 3 4 5 6 5 4 3 3 2 2 3 4 7 10 10 11 11 11 12 13 13 13 13 12 10 10 12 13 18
6 6 5 6 6 5 4 4 4 3 4 3 3 3 4 4 4 4 4 4 4 4 3 4 6 6 4 2 2 2 4 4 3 2 2 2 3 4 3 2 2 2 2 3 2 2 2 4 5 4 3 5 4 1 2 3 4 3 3 4 5 6 6 4 2 3 4 5 5 4 4 6 7 7 8 10 12 13 13 15 17 18 16 14 13 12 14
6 6 5 5 4 4 4 3 3 3 2 2 2 3 4 4 5 4 4 4 4 3 2 3 4 3 2 2 3 3 4 2 0 1 1 2 3 4 3 3 5 5 4 4 4 3 2 3 4 3 3 6 4 1 2 5 6 3 4 7 7 6 5 4 3 3 3 3 4 3 3 5 7 9 11 12 13 14 14 15 17 18 18 19 18 15 11
7 6 5 4 3 3 3 2 2 2 2 1 2 3 3 4 5 5 5 5 5 3 4 4 3 3 2 2 1 3 4 2 1 1 1 1 3 3 2 2 4 4 4 4 5 4 3 3 3 2 3 4 3 1 2 5 6 3 3 4 4 4 4 4 3 2 2 2 3 3 5 7 9 10 12 13 13 12 12 13 14 15 16 18 20 20 16
7 5 4 2 3 3 3 2 3 3 2 1 4 6 6 7 9 9 7 6 3 2 4 5 4 3 3 2 1 0 2 3 3 1 1 1 3 2 2 1 1 2 3 3 4 5 5 5 4 2 3 5 3 1 2 7 10 6 3 2 2 2 3 3 2 1 2 4 5 6 6 7 9 9 11 12 12 12 12 13 14 15 15 15 17 20 21
6 4 3 3 3 3 2 1 2 3 2 3 6 8 9 10 11 11 9 6 5 4 3 3 3 3 2 1 1 2 3 2 2 0 1 2 2 3 3 2 1 3 4 3 4 4 4 6 5 2 2 3 1 0 3 7 8 3 2 1 4 5 4 1 1 1 3 4 6 6 6 7 8 9 9 9 10 10 10 12 14 15 16 16 14 16 20
5 4 3 3 3 3 1 1 3 4 3 5 8 9 10 9 8 6 6 3 4 6 5 3 3 3 1 1 1 1 2 1 1 1 1 2 2 2 4 3 1 3 4 3 3 3 4 5 4 1 1 1 1 1 1 3 1 5 6 5 5 5 4 3 2 3 4 4 4 4 6 7 8 8 8 8 9 10 11 13 14 14 16 17 15 14 17
5 4 4 4 3 2 1 3 6 5 5 7 8 7 6 4 3 2 2 2 3 6 7 5 5 5 3 1 1 2 1 1 0 0 1 3 2 2 4 3 2 2 2 1 3 6 5 3 1 1 1 1 2 4 3 1 2 5 6 6 6 5 3 2 1 2 4 5 5 5 6 8 8 8 7 8 10 10 11 12 13 14 14 16 15 14 16
5 5 4 2 2 2 3 4 6 7 8 6 4 3 2 2 2 2 6 6 4 5 7 7 6 5 3 2 2 3 3 1 1 1 2 3 2 1 2 2 2 3 2 2 3 6 3 0 1 1 1 1 4 6 4 2 2 2 3 4 4 2 1 2 3 3 5 7 8 8 9 9 9 9 9 10 11 11 11 9 9 11 12 13 14 15 17
4 4 2 0 1 3 5 5 4 5 5 2 1 2 3 3 3 2 4 4 4 4 6 5 4 3 3 2 2 3 4 4 2 2 2 3 4 3 1 1 2 3 2 2 4 6 3 0 2 2 0 1 3 6 5 3 2 1 3 4 4 3 2 3 6 7 8 9 11 11 11 11 11 11 11 11 11 11 11 9 8 10 10 11 13 15 17
3 2 1 1 1 2 6 7 3 1 2 2 2 3 2 2 4 4 3 2 2 2 3 3 2 3 3 5 4 3 4 6 6 4 3 2 4 3 2 1 2 2 2 0 4 5 1 1 2 2 1 1 2 4 4 3 4 5 5 6 6 6 7 7 8 10 11 12 14 14 14 15 14 14 14 14 13 12 12 11 11 11 10 11 13 15 16
5 4 3 3 2 2 6 5 2 1 2 2 1 1 1 2 4 4 3 1 0 2 1 1 1 3 4 6 6 4 4 5 6 4 3 2 3 3 2 1 1 1 2 1 1 1 1 1 1 2 2 1 1 2 3 4 6 6 7 7 8 10 12 13 14 14 13 14 16 16 16 16 16 15 15 16 14 12 11 12 13 12 11 12 15 17 19
6 5 3 1 3 3 4 4 4 3 1 0 1 1 2 3 3 2 1 0 2 3 2 4 3 2 4 4 4 4 4 3 3 3 2 1 2 2 2 1 1 1 3 4 1 1 2 2 2 2 2 1 2 3 5 6 7 8 9 10 11 13 14 15 16 16 16 16 17 17 16 17 17 16 16 15 14 11 10 11 14 13 11 13 17 19 20
5 4 1 1 2 3 2 2 3 2 1 1 1 2 2 2 1 0 0 1 1 2 4 5 3 1 2 3 3 3 3 2 2 3 2 1 2 2 1 1 1 3 4 3 0 2 2 1 1 2 2 3 5 6 8 9 9 9 11 12 13 14 15 15 16 17 17 17 17 17 18 18 18 17 17 15 14 12 12 14 16 14 13 17 19 17 15
5 3 1 0 1 2 0 0 2 2 1 2 3 3 1 0 1 2 1 2 2 1 2 3 3 3 4 4 3 2 3 3 3 2 1 1 0 1 1 1 2 2 2 1 1 2 2 1 1 2 7 10 11 10 11 12 12 12 12 12 14 15 16 17 18 20 20 20 19 19 19 19 18 18 19 18 15 12 12 15 18 17 18 20 20 16 15
3 4 4 1 1 2 2 1 2 2 2 4 6 5 2 4 5 4 4 4 3 2 3 4 4 3 3 4 3 3 4 4 3 2 3 1 0 2 3 3 3 2 1 1 2 2 2 3 4 8 12 14 14 14 14 14 15 15 15 16 17 18 18 18 19 20 21 22 22 21 20 20 19 19 19 18 14 12 12 16 20 21 21 21 20 19 19
2 5 4 1 1 2 3 4 4 5 8 10 7 3 8 8 7 6 5 4 2 1 1 5 6 4 4 5 4 4 5 6 3 2 4 2 1 2 4 3 1 0 1 2 3 2 3 5 9 12 14 15 16 17 17 17 18 19 19 19 20 19 17 17 17 18 19 21 23 23 23 22 20 19 18 16 14 13 14 18 22 25 24 22 21 20 19
3 4 2 1 1 2 4 6 9 12 15 12 2 10 12 9 7 6 4 2 1 2 3 5 5 4 5 6 5 3 5 6 3 2 4 3 2 2 2 1 1 2 2 2 3 3 4 7 11 14 15 16 17 18 19 20 20 21 20 19 18 17 16 16 16 17 17 19 20 22 22 21 19 18 17 16 16 16 18 21 24 25 23 23 22 20 17
4 4 3 3 3 4 8 12 12 9 5 2 8 11 9 6 6 4 2 2 3 3 3 4 3 2 3 5 4 2 2 3 2 1 3 3 2 1 0 1 2 3 2 2 3 5 7 10 12 14 15 15 16 17 18 19 19 19 18 17 16 16 16 16 16 17 18 18 18 17 17 17 17 17 15 15 16 18 21 23 24 24 24 25 24 20 16
5 5 5 5 5 7 10 11 10 5 1 6 8 7 6 6 6 3 2 2 2 2 3 4 3 3 3 1 0 1 1 1 1 1 2 2 1 1 2 3 2 2 3 4 5 7 9 10 11 12 13 13 14 16 17 17 17 17 17 16 15 14 15 15 16 17 17 16 14 12 11 11 12 13 12 13 14 16 19 22 23 25 27 26 22 17 15
4 5 7 9 10 10 9 9 9 6 2 6 7 6 4 3 2 2 3 3 3 2 2 3 4 3 1 1 1 1 0 0 1 2 1 1 2 2 2 3 3 4 6 8 9 9 8 8 8 9 9 11 13 15 16 16 16 16 17 16 15 13 13 14 15 15 13 12 11 10 9 8 9 11 12 11 12 15 18 20 22 24 25 23 20 17 16
4 5 7 10 13 15 15 15 13 6 3 8 6 4 3 3 2 3 5 5 5 3 3 3 3 1 1 1 1 0 0 1 3 2 1 2 2 2 4 5 6 8 10 10 9 7 6 6 6 6 7 8 11 13 14 15 16 17 18 19 18 16 13 13 13 13 11 9 10 9 6 4 6 10 10 9 12 18 22 23 23 24 23 22 20 18 17
Wind_Direction
348 346 347 348 350 351 350 347 344 344 347 351 351 350 346 310 293 298 294 199 223 219 221 282 256 132 19 321 36 11 343 1 0 11 59 58 28 41 74 97 105 140 206 42 27 320 6 65 19 342 57 63 31 13 9 7 9 18 5 338 346 335 309 25 331 319 304 291 252 176 209 250 270 273 240 231 255 231 174 159 182 51 88 107 93 99 176
347 345 347 349 351 352 350 347 345 344 347 351 354 354 340 314 303 294 256 145 226 247 259 277 295 88 63 3 88 87 30 12 352 356 23 34 29 46 67 59 81 155 207 304 95 71 28 48 324 303 71 58 18 27 27 21 25 36 359 295 331 339 346 52 10 334 325 313 309 130 221 289 14 298 281 279 268 258 179 100 68 71 112 118 104 114 191
345 345 348 350 353 352 349 348 345 341 346 349 350 347 337 328 315 295 269 202 209 224 342 328 31 48 132 96 84 138 94 38 349 343 351 357 5 7 41 44 274 167 142 329 110 118 113 104 301 320 78 75 28 46 49 43 37 24 344 314 315 324 305 41 77 29 326 319 57 252 289 321 345 295 286 272 272 285 56 96 67 72 104 100 108 135 149
344 347 350 351 354 352 349 349 344 341 344 345 347 347 341 336 316 301 315 290 220 158 3 350 70 33 317 81 22 9 99 82 38 0 342 351 356 343 353 8 338 34 49 21 35 93 118 128 313 328 84 91 10 11 60 72 36 346 339 338 333 338 308 16 110 110 246 230 228 254 289 310 328 330 321 299 286 297 58 84 86 122 114 63 113 141 140
345 348 351 352 354 353 349 348 346 343 341 340 348 352 342 304 298 330 2 326 339 44 21 8 56 37 6 34 321 348 70 89 65 40 12 358 349 338 355 4 30 44 38 47 53 56 81 70 344 343 20 96 137 310 43 66 27 353 3 14 10 1 335 341 116 176 240 269 299 328 331 327 346 350 332 320 308 295 284 94 125 143 109 64 131 140 140
347 350 353 353 354 355 352 349 347 345 341 342 346 347 342 328 324 346 14 320 347 42 12 360 40 32 19 13 319 18 54 56 58 45 28 42 25 357 1 20 74 78 56 57 62 55 71 38 6 1 352 12 151 157 47 45 23 14 25 28 33 73 321 328 300 233 233 278 290 316 329 329 348 347 334 330 321 306 336 59 155 150 114 133 156 148 142
350 352 354 353 355 357 355 353 352 348 349 0 6 359 356 359 343 346 357 347 357 27 319 340 63 37 11 14 0 35 59 58 59 25 7 57 29 338 25 46 44 63 75 79 64 45 62 30 11 7 341 350 10 42 60 30 7 14 27 23 36 59 323 329 326 342 359 315 285 300 327 328 336 341 338 330 324 342 30 23 22 81 119 139 145 138 131
352 354 354 353 356 359 359 359 359 353 351 22 36 31 8 3 353 340 341 336 354 6 306 292 97 99 239 50 0 41 63 59 61 25 4 37 13 343 58 69 46 48 62 77 90 73 72 101 33 357 339 359 9 39 70 356 347 10 25 7 32 40 327 325 350 12 349 323 310 317 324 315 315 329 331 322 328 7 32 40 55 77 112 129 128 122 112
354 354 354 354 357 1 2 4 7 4 357 14 34 29 7 355 345 345 340 325 348 353 299 286 79 72 2 47 19 53 66 55 56 33 9 18 17 14 52 75 65 62 56 55 68 54 39 52 30 358 354 6 8 23 42 2 349 13 21 355 359 10 320 315 15 45 309 305 307 297 291 298 304 318 326 321 327 355 42 75 83 101 118 114 115 123 126
355 355 353 353 359 4 4 7 13 12 8 18 30 24 9 357 354 11 7 334 309 309 274 23 63 72 37 47 54 59 66 60 44 39 9 30 33 28 36 38 40 79 69 40 20 5 4 11 359 337 319 320 335 332 316 19 31 14 8 355 328 338 330 322 32 81 265 275 274 275 317 352 316 354 9 359 356 338 19 78 84 111 129 122 123 136 152
355 355 353 352 360 7 7 10 15 17 20 28 32 27 12 2 4 9 4 342 304 306 302 65 60 142 107 65 70 55 57 80 53 9 217 105 54 50 48 37 36 71 62 24 358 346 342 325 313 320 309 308 335 317 300 73 72 7 323 355 339 347 348 330 358 13 288 285 270 264 74 61 308 28 29 23 26 28 48 79 81 87 102 121 117 108 97
354 355 353 352 359 7 9 12 17 21 29 30 33 32 12 1 12 13 358 339 307 314 350 79 36 97 88 76 74 48 42 72 58 42 57 52 45 55 50 37 39 76 98 41 297 292 291 231 204 341 4 24 1 313 304 91 93 358 13 37 5 359 359 331 326 248 293 325 342 71 108 208 311 32 28 20 39 60 73 79 80 91 109 113 97 75 72
353 354 354 353 357 6 9 12 17 21 28 30 32 31 11 1 22 25 5 353 302 320 3 76 56 71 79 76 74 60 56 60 43 41 60 46 52 68 60 50 52 51 116 194 288 301 290 207 133 31 10 62 343 306 317 75 76 15 33 48 31 14 10 328 312 276 274 352 29 118 171 300 4 27 17 5 21 66 81 76 72 93 114 116 106 90 80
350 352 354 353 356 3 6 10 16 17 21 23 22 26 20 14 22 24 15 1 297 321 354 38 78 80 75 68 73 94 85 74 30 24 30 10 61 76 63 56 58 17 357 34 292 289 279 203 109 41 324 165 69 321 347 43 89 151 42 39 40 38 22 2 339 318 335 355 203 136 98 354 6 11 1 28 50 58 76 88 79 84 113 125 126 128 131
348 351 355 354 353 360 1 4 12 14 18 20 13 19 30 27 20 19 16 356 306 324 11 37 58 74 78 73 343 295 94 124 180 96 47 338 50 85 67 40 47 15 352 2 298 285 287 258 186 155 174 168 140 65 3 355 273 164 121 73 48 50 43 53 59 338 354 2 312 16 87 303 339 6 4 29 54 52 51 82 76 76 127 137 140 137 144
346 348 354 354 351 356 356 358 3 6 11 15 12 15 24 25 20 15 13 8 332 312 11 36 32 49 84 127 278 284 88 70 292 115 104 315 19 101 102 49 27 12 355 345 318 317 305 287 304 110 134 107 122 176 16 352 319 144 122 116 116 102 81 77 60 316 329 357 315 292 135 234 288 311 354 28 51 55 50 72 253 212 140 144 146 134 138
344 346 352 354 352 351 350 353 357 358 2 7 6 9 15 18 14 8 12 18 347 304 318 36 19 7 54 201 271 303 131 68 358 288 129 68 340 101 114 91 24 29 18 349 300 304 285 261 313 11 68 70 93 161 164 13 314 214 118 131 179 252 200 143 120 271 274 304 315 327 66 238 252 340 22 28 39 45 60 76 250 195 140 143 142 129 126
341 343 348 350 350 350 348 347 350 351 357 4 4 6 11 13 10 4 8 17 353 314 347 20 3 358 9 344 17 38 15 355 3 263 161 138 243 260 116 123 140 101 32 337 296 280 285 271 292 64 92 48 91 120 109 75 238 267 322 88 137 321 239 178 194 246 258 251 249 281 22 216 161 68 46 33 15 28 91 159 272 177 117 125 126 120 119
334 338 345 346 346 350 347 341 343 344 347 358 2 1 6 10 9 6 6 10 356 318 351 9 356 353 2 323 328 6 336 322 342 306 274 188 170 23 54 104 79 121 187 342 1 289 278 317 318 154 132 155 128 105 119 136 233 289 336 2 348 293 307 189 199 230 247 238 239 264 336 38 92 76 53 42 35 42 144 150 14 64 93 105 116 131 144
328 330 339 340 339 345 346 342 341 337 341 353 2 9 23 17 6 3 3 1 344 314 332 14 14 352 351 339 332 338 335 342 348 316 321 28 116 36 356 309 348 356 179 124 1 301 308 20 344 308 78 143 140 87 156 192 226 219 234 326 282 183 33 255 222 225 222 224 251 266 268 52 93 90 37 23 80 165 139 73 64 75 91 101 103 125 155
322 322 330 336 336 337 338 340 342 335 334 344 356 20 44 23 357 353 353 349 337 312 310 2 5 343 336 338 340 337 343 3 3 342 353 28 109 95 28 206 252 304 58 71 306 317 29 7 325 327 4 52 114 106 148 196 243 216 181 206 327 68 73 299 302 349 80 185 283 244 234 71 82 99 105 94 116 135 120 92 76 74 83 93 89 91 123
314 313 320 328 331 332 328 331 342 341 332 332 333 344 11 345 333 340 340 332 319 301 300 311 328 326 314 306 317 323 314 332 3 19 358 349 336 257 200 217 256 327 59 61 332 18 37 354 330 4 0 340 221 327 13 36 283 232 142 125 304 257 148 151 210 299 267 167 161 192 216 94 90 99 113 118 115 117 122 115 101 87 87 94 93 89 98
300 303 311 319 325 326 320 317 329 338 334 329 325 322 323 321 323 333 337 335 328 319 315 312 301 290 281 269 257 253 272 283 310 359 310 306 318 298 261 37 34 36 57 66 64 47 38 2 347 6 349 318 354 352 330 269 240 238 167 180 200 197 161 152 169 321 351 116 147 154 164 142 120 117 119 120 118 115 115 117 124 129 117 112 128 119 108
284 290 297 309 319 319 312 309 314 324 330 327 326 330 327 323 330 343 350 2 357 345 338 318 284 278 292 294 231 237 266 259 255 273 262 256 275 293 350 36 47 63 66 67 71 56 31 326 330 8 332 331 12 346 288 271 331 25 13 216 200 133 97 128 175 51 50 88 152 149 154 150 132 126 124 119 121 124 116 113 137 154 149 143 159 169 159
271 278 285 297 310 313 309 303 299 303 315 321 324 333 329 324 338 356 2 2 352 339 324 313 299 278 305 346 280 251 255 239 237 267 263 253 260 268 322 21 40 76 65 58 58 50 28 293 306 293 267 349 30 318 287 334 20 25 7 346 33 31 30 46 339 288 179 137 31 41 138 160 145 136 140 144 147 145 126 114 145 156 159 160 164 177 188
259 266 277 286 299 307 302 294 291 292 298 308 315 325 331 328 332 347 354 343 327 294 252 282 318 319 310 316 310 274 163 187 235 263 256 247 258 261 265 314 47 40 34 36 30 14 343 310 333 293 263 17 30 355 329 356 347 296 290 130 109 37 349 23 24 329 291 64 20 12 40 168 148 121 138 162 174 170 159 150 157 160 160 158 161 180 199
258 258 267 276 290 299 296 287 282 282 286 299 313 325 329 326 326 338 356 349 333 295 231 287 329 333 316 307 300 281 274 278 281 273 255 245 248 249 250 248 241 271 322 294 256 248 237 245 282 287 312 4 5 318 298 333 357 302 272 261 176 161 266 76 67 326 286 197 28 11 8 177 32 29 55 128 161 173 180 186 188 174 166 164 164 168 180
257 251 258 271 283 289 289 285 274 270 279 285 294 322 329 322 327 357 19 5 356 25 294 304 311 311 304 300 289 262 256 268 287 280 259 250 242 235 245 254 244 234 243 255 253 238 215 239 285 25 15 9 359 295 310 336 345 241 257 245 169 170 182 164 159 200 215 211 218 341 330 302 342 7 8 19 47 127 184 195 199 193 188 188 183 176 175
256 249 252 266 279 284 285 283 270 262 267 271 283 337 359 352 29 57 51 27 11 351 314 309 308 302 301 314 320 284 260 256 282 279 261 247 239 232 235 244 243 238 241 252 264 277 292 315 28 78 82 69 102 307 325 315 253 254 208 130 134 164 191 186 186 186 199 224 245 286 301 296 312 326 313 312 329 337 268 207 205 200 199 201 196 191 190
263 251 251 261 276 284 285 281 270 260 259 268 284 314 156 184 206 348 17 6 353 342 332 319 302 298 302 302 291 276 267 262 276 281 265 251 261 258 232 221 226 236 245 257 262 244 261 304 47 112 200 217 248 274 249 235 260 263 123 138 175 203 189 182 191 190 200 235 234 248 268 274 279 283 281 282 288 287 279 273 263 232 209 204 204 204 201
261 245 247 261 272 280 282 277 271 266 260 260 264 243 197 195 216 250 296 319 322 327 325 291 279 289 296 295 285 275 270 261 251 260 277 283 309 330 303 212 203 221 255 278 281 197 186 200 188 207 224 215 216 246 252 267 276 256 157 156 185 186 178 182 197 209 231 238 215 228 248 257 262 268 270 267 270 274 271 264 264 266 249 222 213 214 211
256 241 245 259 268 276 279 272 268 267 265 261 256 246 249 258 260 264 280 293 300 313 312 289 285 287 289 301 310 278 274 267 224 207 296 301 291 301 307 294 267 248 256 275 260 201 213 208 194 204 217 196 196 261 273 248 260 246 195 189 188 181 180 181 189 219 239 247 247 248 255 261 265 269 272 266 259 259 261 257 254 256 255 242 228 224 223
250 241 245 259 266 270 268 266 269 267 256 271 294 272 260 271 281 280 281 285 290 291 275 276 290 285 278 333 329 268 263 297 319 226 309 312 282 287 295 289 282 275 258 236 201 183 208 202 178 177 189 185 189 292 266 247 266 262 192 190 193 189 184 183 200 238 258 268 279 282 288 291 286 278 278 280 273 265 262 258 252 254 258 252 241 232 230
241 239 247 259 255 250 250 254 256 240 179 109 333 303 307 325 319 307 299 299 299 268 225 235 268 277 259 281 290 234 236 266 289 251 243 301 301 296 293 299 301 290 261 233 206 192 203 194 168 155 172 174 177 243 258 276 297 296 180 175 181 172 164 171 202 271 332 349 324 299 284 290 294 290 287 287 284 275 268 261 254 254 261 263 252 238 232
230 231 242 245 230 233 247 251 239 221 171 159 274 274 285 305 308 304 300 297 292 251 219 222 231 256 269 264 246 192 256 264 265 240 200 294 302 274 227 243 283 251 238 229 214 213 207 186 176 171 148 141 144 187 306 343 353 8 48 19 324 269 208 177 171 336 334 317 311 312 308 304 303 301 296 291 284 277 268 260 255 251 253 262 262 247 235
221 227 237 234 224 226 235 244 224 211 214 247 255 262 278 289 295 299 298 278 239 229 253 252 238 247 269 252 235 9 346 297 273 276 230 269 277 230 200 191 230 224 217 219 232 231 195 169 178 191 125 116 109 287 323 341 352 18 142 265 295 289 282 253 197 293 307 309 316 324 324 316 311 309 306 297 286 276 264 258 256 251 247 251 256 246 234
212 224 231 224 219 216 209 204 201 198 231 266 268 275 286 291 296 309 315 294 232 223 231 256 272 266 261 191 204 293 349 332 333 1 288 256 260 210 183 178 221 216 206 215 232 210 162 163 183 184 95 136 318 5 319 299 257 168 175 196 221 243 263 260 252 287 307 314 321 326 323 318 316 316 314 304 289 276 269 263 258 251 247 245 242 233 229
205 222 223 214 211 219 220 202 201 219 279 296 292 292 296 294 291 272 215 197 234 226 212 217 252 256 240 184 222 246 278 294 257 227 219 241 255 197 179 200 240 236 236 243 172 157 153 163 186 58 93 153 56 51 52 69 131 149 166 174 178 196 229 244 243 344 347 339 329 321 316 315 316 314 310 310 305 296 286 274 262 254 251 248 239 226 217
202 202 197 198 216 249 256 230 230 258 291 310 314 297 260 223 240 219 179 177 203 215 200 205 233 235 213 191 228 244 254 249 204 194 215 238 245 192 169 197 199 198 252 277 164 160 168 171 73 79 351 11 28 25 22 48 86 117 160 163 163 183 314 14 7 347 339 332 324 319 313 311 314 314 307 304 306 304 294 279 259 250 248 244 233 219 207
186 177 166 262 254 271 295 298 276 275 297 336 351 266 241 210 209 190 160 169 198 198 192 203 215 206 207 231 238 234 232 222 222 278 283 229 215 213 228 185 161 185 263 277 169 175 202 343 123 148 197 24 14 359 349 342 343 309 200 189 197 225 266 341 331 316 308 304 303 306 306 301 303 308 303 293 289 291 287 271 248 240 237 229 222 217 209
141 159 149 112 152 288 310 322 331 288 285 278 237 234 225 206 215 213 202 225 227 163 158 177 151 142 211 246 244 233 227 220 227 265 286 224 199 213 254 252 179 212 285 262 160 176 207 42 106 126 94 71 7 353 357 341 315 293 257 236 235 240 246 264 283 287 288 290 293 297 298 295 294 298 296 287 281 280 274 258 240 231 226 219 217 210 197
165 178 167 153 170 263 296 303 290 229 261 277 263 260 271 251 230 211 198 229 348 88 99 259 187 143 193 229 232 222 214 211 218 241 256 210 189 212 247 255 163 221 297 308 168 155 83 71 97 102 94 102 283 313 338 335 327 319 304 291 284 278 275 275 278 279 280 284 289 294 296 294 291 290 288 282 279 278 270 247 229 220 215 213 211 198 178
180 175 173 224 243 251 265 253 219 214 239 42 64 321 274 251 236 212 190 165 69 103 188 240 245 150 162 194 212 209 204 204 221 239 244 220 202 222 248 260 164 208 265 279 281 102 98 81 62 62 70 29 315 320 323 321 322 324 320 314 311 308 303 296 292 292 291 289 288 289 291 289 285 282 283 280 272 266 253 227 214 213 211 201 192 182 171
159 159 169 262 231 222 243 211 177 171 348 336 220 239 249 231 211 27 248 198 109 137 195 227 248 229 189 191 202 217 217 207 215 235 254 269 239 227 260 305 236 235 258 266 201 94 83 71 76 73 43 7 351 341 332 328 325 320 315 310 307 308 308 303 298 296 294 292 289 286 285 285 282 280 279 272 256 244 229 208 198 195 188 179 174 169 164
138 164 190 306 237 210 195 131 185 201 235 222 216 233 266 197 95 60 84 172 178 222 258 243 234 228 215 199 197 222 217 191 189 211 240 336 314 226 228 255 246 245 260 282 74 75 74 120 137 44 15 4 355 344 337 333 328 323 320 316 308 303 301 299 297 295 293 292 290 286 283 282 281 280 278 270 258 247 231 210 195 182 172 170 169 162 157
152 201 201 223 286 194 171 207 247 214 193 221 231 230 184 141 143 135 130 150 179 259 280 247 229 225 204 188 192 208 206 199 197 187 174 165 275 222 211 221 233 231 211 65 68 68 69 73 55 27 8 357 347 340 336 331 325 322 320 315 309 303 299 295 295 294 292 290 288 285 282 279 277 277 279 276 264 247 227 207 191 176 165 163 162 158 157
272 238 215 211 241 204 204 229 233 227 242 255 250 145 106 106 116 125 136 162 202 283 220 209 219 230 214 206 215 211 194 196 201 165 164 181 265 224 206 220 256 141 86 62 60 60 50 41 30 14 357 346 341 338 332 325 319 316 312 307 304 304 303 300 298 294 289 286 285 282 278 275 273 274 275 268 250 230 216 200 185 174 166 162 159 160 164
292 280 266 246 219 203 224 239 239 241 250 256 213 107 104 104 107 113 128 161 151 131 174 201 221 231 205 203 219 218 183 185 196 188 185 205 256 230 207 216 61 81 78 60 62 59 37 25 15 2 350 343 339 334 328 322 319 317 312 308 305 305 307 307 304 299 294 293 291 285 277 270 266 266 264 255 238 219 203 190 180 172 167 163 160 161 165
293 288 283 261 248 260 266 267 267 263 251 152 104 104 108 107 106 113 135 138 130 154 215 236 262 276 208 191 200 235 196 179 180 197 204 216 246 272 312 54 72 79 65 54 65 60 39 22 7 355 348 344 340 336 333 330 329 327 325 319 312 309 310 311 308 306 304 303 299 290 278 266 261 262 262 252 233 209 189 179 175 171 168 166 166 164 162
257 261 262 249 254 275 282 280 281 286 64 95 93 96 99 97 99 118 171 165 160 214 246 232 227 256 268 228 178 299 257 191 190 240 241 250 292 9 60 68 73 80 79 76 71 60 44 24 3 351 348 350 351 350 348 345 342 341 341 334 324 316 315 314 312 313 314 313 307 295 278 265 262 259 254 247 234 213 194 184 178 171 165 165 167 165 157
239 248 250 240 244 260 275 283 290 300 16 75 68 57 55 65 97 159 182 198 213 231 249 231 218 225 258 260 207 222 313 330 261 238 226 7 2 29 80 83 79 90 95 91 82 67 48 27 5 355 357 1 1 1 1 1 359 357 355 350 342 336 330 325 323 322 322 323 321 310 292 274 259 247 238 234 227 214 200 186 173 162 156 157 160 158 150
233 246 258 257 254 256 259 267 277 287 88 93 80 53 27 351 289 220 205 217 230 240 268 280 266 231 196 240 238 232 303 276 258 231 115 56 27 55 95 99 98 99 98 92 84 73 53 28 11 4 8 11 7 4 7 12 14 11 8 5 2 358 350 342 336 330 322 323 330 330 323 297 246 229 216 195 186 186 178 163 154 153 153 152 152 150 146
Height
1516 1515 1513 1511 1509 1507 1504 1502 1500 1497 1495 1493 1492 1491 1491 1491 1488 1484 1483 1484 1484 1485 1487 1484 1480 1481 1483 1481 1481 1482 1481 1480 1479 1478 1477 1480 1481 1481 1482 1483 1485 1488 1487 1486 1488 1486 1486 1488 1488 1488 1487 1487 1488 1487 1486 1486 1484 1485 1489 1487 1482 1482 1484 1490 1491 1484 1475 1468 1460 1459 1461 1463 1468 1471 1467 1470 1474 1473 1478 1485 1484 1490 1500 1502 1515 1538 1538
1516 1515 1513 1511 1509 1507 1505 1503 1501 1498 1496 1494 1492 1492 1491 1489 1486 1483 1483 1483 1483 1484 1485 1484 1481 1481 1481 1481 1482 1483 1483 1484 1484 1482 1481 1481 1481 1483 1483 1483 1484 1485 1485 1486 1487 1488 1492 1495 1492 1489 1489 1489 1489 1488 1488 1488 1487 1488 1491 1489 1487 1489 1490 1493 1500 1501 1493 1482 1477 1475 1472 1470 1475 1475 1469 1470 1471 1469 1473 1477 1480 1494 1503 1504 1521 1542 1535
1516 1515 1513 1511 1509 1507 1505 1504 1501 1499 1498 1496 1494 1493 1491 1488 1485 1482 1481 1481 1481 1481 1481 1480 1481 1482 1482 1482 1483 1483 1485 1486 1486 1485 1484 1482 1482 1484 1484 1483 1482 1482 1484 1485 1486 1487 1494 1498 1494 1490 1489 1490 1490 1489 1489 1490 1489 1489 1490 1487 1486 1492 1493 1493 1505 1518 1518 1509 1503 1499 1490 1481 1478 1476 1472 1471 1469 1470 1477 1480 1488 1504 1506 1502 1517 1533 1530
1516 1515 1513 1511 1509 1507 1506 1504 1502 1500 1498 1496 1495 1494 1492 1491 1489 1484 1481 1479 1478 1479 1479 1478 1481 1482 1483 1484 1484 1483 1485 1487 1487 1487 1486 1485 1484 1484 1484 1483 1483 1484 1486 1490 1492 1490 1492 1496 1496 1493 1492 1492 1491 1489 1489 1490 1490 1489 1489 1486 1486 1490 1491 1490 1498 1508 1511 1507 1499 1492 1487 1486 1484 1480 1477 1475 1471 1472 1477 1483 1493 1504 1505 1508 1514 1518 1524
1516 1515 1513 1511 1509 1507 1506 1504 1503 1501 1499 1497 1496 1494 1493 1493 1491 1486 1484 1483 1480 1481 1480 1480 1482 1482 1484 1487 1486 1484 1485 1486 1487 1488 1487 1487 1486 1486 1485 1484 1486 1490 1491 1493 1498 1498 1496 1497 1498 1495 1493 1492 1491 1490 1489 1490 1490 1489 1488 1487 1488 1493 1495 1491 1492 1495 1495 1492 1488 1483 1483 1485 1485 1483 1483 1480 1475 1475 1478 1485 1492 1494 1501 1516 1516 1509 1518
1516 1514 1513 1511 1509 1508 1506 1504 1503 1501 1500 1498 1496 1495 1494 1493 1490 1486 1487 1488 1485 1485 1485 1483 1484 1484 1485 1487 1486 1485 1487 1488 1490 1490 1488 1487 1488 1488 1489 1487 1487 1490 1492 1494 1499 1500 1500 1501 1500 1497 1495 1493 1492 1491 1490 1490 1491 1490 1490 1490 1490 1497 1500 1494 1491 1492 1489 1487 1486 1484 1485 1485 1484 1484 1484 1481 1477 1477 1479 1481 1482 1482 1493 1510 1512 1507 1513
1516 1515 1513 1512 1510 1508 1506 1504 1503 1501 1501 1500 1498 1497 1495 1494 1492 1488 1487 1488 1486 1487 1487 1485 1486 1488 1488 1489 1488 1488 1490 1491 1492 1492 1490 1490 1490 1490 1492 1492 1490 1490 1492 1495 1501 1503 1503 1506 1504 1500 1498 1496 1495 1496 1496 1495 1493 1492 1493 1493 1492 1497 1500 1495 1492 1493 1490 1488 1487 1485 1486 1488 1486 1485 1484 1483 1481 1478 1478 1480 1479 1479 1489 1499 1504 1508 1510
1517 1515 1514 1512 1511 1509 1507 1505 1503 1501 1501 1500 1499 1499 1498 1497 1497 1494 1491 1489 1487 1487 1487 1485 1487 1489 1490 1491 1491 1489 1492 1494 1494 1494 1494 1495 1493 1490 1492 1495 1494 1494 1494 1496 1500 1501 1501 1504 1503 1500 1500 1499 1498 1501 1502 1499 1496 1495 1495 1495 1495 1499 1501 1495 1494 1499 1499 1492 1488 1487 1489 1490 1490 1488 1486 1486 1484 1480 1482 1486 1486 1489 1496 1499 1502 1511 1514
1517 1515 1514 1513 1511 1510 1508 1506 1504 1502 1502 1501 1500 1500 1500 1500 1500 1499 1496 1493 1489 1489 1487 1485 1487 1490 1491 1492 1492 1491 1494 1495 1496 1497 1496 1497 1496 1494 1494 1496 1496 1497 1498 1498 1500 1499 1498 1500 1500 1499 1500 1501 1500 1500 1501 1500 1500 1499 1499 1499 1498 1500 1503 1498 1497 1508 1508 1497 1493 1492 1489 1490 1493 1493 1491 1490 1487 1485 1487 1489 1490 1495 1502 1505 1510 1517 1518
1517 1516 1515 1514 1512 1511 1509 1507 1506 1504 1503 1502 1501 1501 1500 1499 1499 1498 1498 1496 1492 1490 1488 1485 1489 1494 1493 1492 1492 1493 1495 1495 1497 1500 1499 1497 1497 1496 1496 1497 1498 1500 1501 1501 1501 1501 1500 1500 1501 1500 1500 1500 1499 1499 1499 1499 1502 1502 1502 1503 1501 1501 1504 1503 1504 1512 1509 1499 1496 1493 1492 1501 1506 1499 1495 1493 1489 1487 1488 1491 1492 1494 1500 1508 1516 1520 1517
1517 1516 1515 1514 1513 1512 1510 1509 1507 1506 1504 1503 1503 1503 1502 1501 1500 1498 1498 1498 1494 1489 1488 1489 1492 1493 1492 1492 1493 1494 1496 1496 1497 1500 1500 1497 1497 1498 1498 1498 1500 1503 1504 1503 1503 1502 1502 1502 1502 1501 1500 1500 1499 1499 1499 1499 1501 1503 1503 1504 1504 1503 1505 1505 1506 1512 1511 1501 1494 1495 1506 1519 1515 1499 1493 1494 1493 1491 1493 1497 1499 1498 1500 1506 1511 1514 1514
1517 1516 1516 1515 1514 1513 1511 1510 1509 1507 1506 1506 1505 1504 1503 1503 1502 1500 1501 1501 1497 1490 1489 1491 1492 1491 1491 1493 1496 1496 1497 1497 1498 1498 1499 1498 1498 1499 1499 1500 1502 1504 1504 1504 1503 1503 1503 1502 1502 1501 1500 1501 1501 1499 1499 1500 1502 1503 1503 1504 1506 1507 1508 1508 1506 1509 1510 1502 1500 1512 1523 1518 1504 1494 1493 1494 1494 1494 1497 1500 1501 1501 1503 1506 1511 1515 1516
1518 1517 1516 1515 1514 1513 1512 1511 1510 1509 1508 1508 1506 1505 1504 1503 1502 1502 1502 1503 1500 1494 1491 1492 1491 1492 1494 1496 1497 1499 1499 1499 1500 1499 1499 1499 1499 1500 1502 1502 1503 1504 1504 1504 1503 1503 1503 1502 1503 1504 1502 1502 1502 1502 1500 1501 1503 1504 1503 1504 1507 1509 1511 1512 1509 1508 1510 1508 1511 1522 1521 1506 1496 1497 1496 1494 1496 1497 1501 1506 1506 1503 1504 1507 1513 1519 1520
1518 1517 1516 1515 1514 1514 1513 1512 1511 1510 1509 1509 1507 1506 1506 1504 1503 1503 1504 1504 1502 1497 1494 1494 1493 1494 1497 1498 1499 1500 1500 1501 1501 1501 1500 1501 1500 1501 1503 1504 1504 1504 1504 1504 1504 1504 1504 1504 1506 1509 1507 1506 1509 1509 1505 1503 1504 1504 1505 1505 1506 1509 1511 1514 1514 1511 1511 1513 1514 1513 1512 1507 1504 1502 1498 1498 1500 1500 1502 1510 1511 1506 1505 1508 1512 1518 1522
1518 1517 1516 1516 1515 1514 1513 1512 1512 1511 1510 1510 1508 1507 1507 1506 1505 1505 1505 1505 1504 1499 1495 1496 1496 1496 1499 1500 1500 1500 1501 1501 1502 1502 1502 1502 1501 1502 1504 1505 1505 1505 1504 1504 1504 1504 1504 1506 1510 1514 1515 1515 1518 1516 1510 1508 1506 1503 1505 1507 1507 1509 1511 1514 1518 1515 1511 1516 1518 1516 1520 1521 1514 1506 1501 1498 1500 1499 1498 1507 1514 1508 1506 1509 1511 1515 1521
1518 1517 1516 1516 1515 1514 1514 1513 1512 1512 1511 1510 1509 1508 1508 1507 1506 1506 1505 1505 1505 1503 1499 1498 1499 1499 1500 1501 1501 1501 1501 1502 1502 1502 1503 1503 1502 1503 1505 1505 1505 1506 1505 1505 1505 1505 1505 1508 1510 1513 1515 1516 1518 1518 1516 1516 1512 1505 1504 1506 1507 1509 1510 1511 1518 1519 1515 1519 1523 1522 1524 1523 1514 1507 1502 1500 1502 1499 1498 1511 1519 1511 1506 1509 1511 1514 1519
1518 1517 1517 1516 1515 1514 1514 1513 1513 1512 1511 1511 1510 1509 1508 1507 1507 1507 1506 1505 1506 1504 1500 1499 1501 1500 1500 1501 1501 1501 1502 1502 1502 1504 1504 1504 1503 1503 1504 1505 1505 1506 1506 1506 1506 1506 1508 1509 1509 1512 1515 1513 1514 1519 1520 1519 1518 1513 1509 1509 1510 1511 1512 1513 1519 1521 1517 1519 1522 1519 1520 1517 1509 1505 1504 1503 1503 1500 1507 1524 1525 1510 1506 1510 1511 1513 1518
1518 1518 1517 1516 1515 1514 1514 1513 1513 1512 1512 1511 1510 1509 1509 1508 1508 1507 1506 1506 1506 1504 1501 1501 1502 1502 1502 1502 1502 1502 1503 1502 1503 1504 1504 1504 1503 1503 1504 1504 1505 1506 1507 1507 1508 1509 1510 1509 1508 1512 1516 1513 1512 1517 1520 1519 1520 1517 1512 1512 1514 1514 1513 1514 1518 1518 1517 1518 1520 1519 1517 1512 1506 1505 1506 1505 1504 1507 1519 1529 1521 1509 1509 1513 1512 1515 1519
1518 1517 1517 1516 1515 1515 1514 1513 1513 1513 1512 1512 1511 1510 1509 1509 1508 1508 1507 1507 1507 1506 1503 1502 1503 1503 1503 1503 1503 1503 1504 1503 1504 1505 1505 1505 1504 1503 1503 1504 1505 1506 1506 1506 1508 1509 1509 1509 1506 1507 1513 1515 1513 1515 1518 1518 1517 1515 1513 1515 1517 1516 1515 1515 1516 1517 1516 1515 1517 1520 1520 1512 1506 1507 1507 1506 1510 1518 1523 1521 1514 1512 1514 1514 1515 1518 1520
1518 1517 1517 1516 1515 1515 1514 1513 1513 1513 1512 1512 1511 1511 1510 1510 1509 1508 1508 1508 1508 1506 1504 1503 1504 1504 1504 1504 1504 1504 1504 1504 1504 1504 1505 1505 1504 1504 1507 1509 1507 1506 1507 1508 1510 1509 1509 1511 1509 1505 1509 1514 1513 1513 1515 1515 1513 1511 1513 1515 1515 1514 1517 1518 1515 1513 1514 1515 1518 1524 1524 1514 1507 1509 1510 1510 1515 1520 1519 1516 1515 1515 1515 1516 1518 1520 1521
1518 1517 1516 1516 1515 1515 1514 1513 1513 1513 1512 1512 1511 1511 1511 1510 1510 1509 1509 1508 1508 1507 1505 1504 1504 1504 1504 1505 1505 1505 1505 1505 1505 1505 1505 1505 1504 1505 1510 1511 1508 1507 1508 1510 1511 1510 1509 1511 1511 1508 1508 1510 1512 1513 1515 1515 1513 1509 1509 1512 1513 1511 1516 1519 1515 1512 1516 1521 1522 1522 1519 1512 1509 1511 1513 1513 1515 1516 1516 1516 1517 1517 1517 1518 1520 1521 1522
1517 1517 1516 1516 1515 1514 1514 1513 1513 1513 1512 1512 1511 1511 1511 1510 1510 1510 1509 1508 1508 1507 1505 1505 1505 1505 1506 1506 1505 1506 1506 1506 1506 1505 1506 1506 1506 1506 1508 1507 1506 1507 1508 1509 1511 1511 1511 1512 1511 1511 1511 1511 1512 1512 1512 1514 1516 1512 1509 1512 1514 1511 1511 1515 1515 1513 1514 1517 1517 1514 1512 1511 1511 1512 1514 1514 1515 1516 1516 1516 1517 1518 1519 1520 1520 1522 1524
1516 1516 1516 1515 1515 1514 1514 1513 1513 1512 1512 1512 1511 1511 1511 1510 1510 1510 1509 1508 1507 1506 1505 1505 1505 1505 1505 1504 1505 1506 1506 1506 1506 1506 1507 1507 1506 1506 1506 1506 1507 1508 1508 1509 1511 1512 1514 1514 1512 1513 1514 1512 1511 1513 1513 1513 1514 1512 1509 1510 1510 1508 1507 1510 1512 1511 1510 1510 1510 1509 1510 1511 1512 1513 1515 1515 1516 1517 1517 1517 1518 1519 1520 1520 1521 1523 1525
1515 1515 1515 1515 1514 1514 1513 1513 1512 1512 1512 1511 1511 1511 1510 1510 1509 1509 1508 1508 1508 1507 1505 1504 1505 1504 1504 1504 1504 1505 1505 1505 1506 1506 1507 1507 1507 1507 1507 1507 1508 1509 1510 1511 1511 1512 1514 1514 1513 1515 1516 1512 1511 1514 1515 1514 1512 1511 1510 1509 1508 1507 1508 1509 1510 1511 1513 1513 1511 1508 1509 1511 1512 1513 1515 1516 1517 1518 1518 1519 1519 1519 1520 1521 1521 1522 1524
1514 1514 1514 1514 1514 1513 1513 1512 1512 1512 1511 1511 1511 1511 1510 1510 1510 1509 1509 1509 1509 1509 1508 1506 1504 1504 1504 1504 1504 1505 1505 1505 1506 1506 1506 1507 1507 1508 1508 1508 1509 1510 1511 1512 1512 1513 1514 1514 1513 1515 1516 1513 1511 1513 1514 1514 1514 1513 1512 1513 1511 1509 1509 1510 1511 1512 1512 1513 1511 1509 1510 1512 1512 1513 1515 1516 1517 1518 1519 1520 1520 1520 1521 1521 1522 1523 1524
1513 1513 1513 1513 1513 1513 1512 1512 1511 1511 1511 1511 1511 1511 1510 1510 1510 1510 1510 1509 1509 1509 1508 1507 1505 1504 1504 1504 1504 1504 1504 1505 1506 1506 1506 1507 1507 1507 1508 1509 1509 1510 1511 1512 1512 1513 1514 1514 1514 1515 1515 1513 1513 1513 1513 1513 1514 1513 1513 1513 1512 1511 1511 1513 1514 1514 1512 1511 1512 1511 1511 1512 1513 1514 1515 1515 1516 1517 1518 1520 1521 1521 1521 1522 1523 1524 1524
1512 1512 1512 1512 1512 1512 1511 1511 1511 1511 1510 1510 1510 1510 1510 1510 1510 1510 1510 1509 1509 1509 1509 1507 1506 1505 1504 1503 1503 1504 1504 1505 1505 1505 1506 1507 1507 1507 1508 1509 1509 1510 1510 1511 1512 1512 1513 1514 1514 1514 1514 1514 1514 1514 1513 1512 1512 1513 1513 1511 1510 1511 1513 1514 1515 1517 1516 1515 1515 1514 1514 1515 1514 1514 1515 1516 1516 1517 1517 1519 1520 1521 1521 1522 1523 1525 1526
1510 1510 1511 1511 1511 1511 1511 1510 1510 1510 1510 1510 1510 1510 1510 1510 1509 1510 1510 1509 1509 1510 1510 1509 1506 1505 1504 1503 1502 1503 1504 1504 1505 1505 1506 1506 1506 1507 1508 1508 1508 1509 1510 1511 1511 1511 1512 1513 1513 1513 1513 1514 1515 1514 1513 1512 1513 1514 1513 1510 1509 1511 1512 1512 1514 1516 1516 1515 1515 1515 1516 1516 1515 1514 1515 1515 1516 1516 1517 1518 1519 1520 1520 1520 1522 1524 1525
1509 1509 1510 1510 1510 1510 1510 1509 1509 1509 1509 1509 1510 1510 1510 1509 1509 1509 1510 1510 1510 1510 1510 1508 1506 1505 1504 1503 1502 1503 1503 1504 1505 1505 1505 1505 1506 1506 1507 1507 1508 1508 1509 1510 1510 1511 1512 1512 1512 1512 1513 1514 1515 1515 1514 1514 1515 1513 1510 1508 1508 1509 1510 1510 1512 1512 1512 1513 1514 1514 1515 1516 1516 1515 1515 1515 1515 1516 1516 1517 1518 1519 1519 1520 1520 1521 1523
1508 1508 1509 1509 1509 1509 1509 1509 1509 1509 1509 1509 1509 1509 1509 1509 1509 1509 1510 1510 1510 1509 1509 1509 1507 1505 1503 1502 1503 1503 1503 1503 1504 1504 1504 1505 1505 1505 1505 1506 1507 1507 1508 1509 1509 1510 1511 1512 1512 1513 1513 1513 1515 1515 1514 1514 1513 1510 1507 1507 1508 1509 1509 1510 1511 1511 1512 1512 1512 1513 1514 1515 1515 1515 1514 1514 1515 1515 1515 1516 1517 1518 1519 1519 1519 1520 1521
1507 1507 1508 1508 1508 1508 1508 1508 1508 1508 1508 1508 1508 1509 1509 1508 1509 1509 1509 1509 1509 1509 1509 1509 1507 1505 1502 1502 1502 1502 1502 1503 1503 1504 1504 1504 1504 1504 1505 1505 1506 1506 1507 1508 1509 1510 1510 1511 1511 1512 1512 1512 1514 1514 1513 1514 1513 1510 1507 1507 1508 1508 1509 1510 1510 1511 1512 1512 1513 1514 1514 1514 1514 1514 1513 1513 1514 1514 1514 1515 1515 1516 1517 1518 1518 1519 1519
1506 1506 1507 1507 1507 1507 1507 1507 1507 1507 1507 1507 1508 1508 1508 1508 1508 1509 1509 1509 1509 1509 1509 1509 1507 1505 1502 1501 1501 1501 1502 1502 1502 1503 1503 1503 1504 1504 1505 1505 1506 1506 1507 1508 1509 1509 1509 1510 1510 1510 1510 1511 1512 1512 1512 1513 1512 1509 1506 1507 1508 1508 1508 1509 1510 1510 1511 1511 1512 1513 1513 1513 1513 1513 1512 1512 1512 1512 1513 1513 1513 1514 1515 1516 1516 1517 1518
1505 1506 1506 1506 1506 1506 1507 1506 1507 1507 1507 1507 1507 1507 1507 1507 1508 1508 1508 1508 1509 1509 1509 1509 1508 1506 1503 1502 1501 1502 1502 1502 1502 1502 1503 1503 1504 1504 1505 1505 1505 1506 1506 1507 1507 1508 1508 1509 1509 1510 1511 1511 1511 1512 1512 1510 1508 1506 1506 1506 1507 1507 1508 1509 1509 1509 1510 1510 1511 1511 1512 1512 1512 1511 1511 1510 1510 1511 1511 1511 1511 1512 1513 1513 1514 1516 1517
1504 1505 1505 1505 1506 1506 1506 1506 1506 1506 1506 1506 1506 1506 1507 1507 1507 1507 1508 1508 1508 1508 1508 1508 1508 1506 1503 1501 1501 1501 1502 1502 1502 1502 1503 1503 1504 1504 1504 1505 1505 1505 1505 1506 1506 1506 1507 1507 1508 1509 1510 1509 1511 1512 1511 1508 1506 1506 1507 1507 1508 1508 1508 1508 1509 1509 1509 1510 1510 1510 1510 1510 1510 1510 1509 1509 1509 1509 1509 1509 1510 1510 1510 1510 1512 1513 1514
1503 1504 1505 1505 1505 1505 1505 1505 1505 1506 1506 1506 1506 1505 1506 1506 1506 1506 1507 1507 1507 1507 1507 1506 1506 1505 1503 1502 1502 1502 1501 1502 1502 1502 1503 1503 1503 1503 1504 1504 1505 1505 1505 1505 1505 1505 1505 1505 1507 1508 1508 1508 1510 1513 1512 1510 1510 1510 1509 1508 1510 1511 1510 1508 1508 1509 1509 1509 1509 1508 1508 1509 1509 1508 1508 1507 1507 1507 1507 1507 1507 1507 1507 1507 1509 1510 1512
1503 1504 1504 1504 1504 1504 1504 1505 1505 1505 1505 1505 1505 1505 1505 1505 1505 1505 1505 1505 1506 1506 1505 1505 1504 1504 1503 1504 1504 1502 1501 1502 1502 1502 1502 1503 1503 1503 1503 1505 1505 1504 1504 1503 1503 1503 1502 1504 1505 1506 1506 1508 1510 1511 1510 1510 1512 1511 1510 1510 1512 1513 1512 1510 1508 1508 1508 1508 1508 1507 1507 1508 1507 1507 1506 1506 1505 1505 1505 1505 1505 1505 1505 1505 1506 1507 1509
1502 1503 1503 1503 1504 1504 1504 1504 1504 1504 1505 1505 1505 1505 1504 1504 1504 1504 1503 1503 1504 1504 1505 1505 1504 1502 1502 1503 1503 1502 1502 1502 1502 1502 1502 1503 1502 1502 1503 1504 1504 1503 1502 1502 1501 1500 1501 1503 1504 1505 1508 1511 1512 1510 1509 1510 1510 1509 1508 1509 1510 1511 1510 1509 1508 1507 1507 1506 1506 1507 1507 1507 1506 1506 1505 1504 1504 1504 1503 1503 1503 1503 1503 1503 1504 1504 1506
1502 1502 1503 1503 1503 1503 1504 1504 1504 1504 1504 1504 1504 1503 1503 1503 1503 1502 1502 1503 1503 1503 1504 1504 1503 1501 1501 1501 1501 1501 1502 1502 1502 1503 1503 1502 1501 1501 1501 1502 1502 1501 1500 1499 1498 1499 1501 1502 1503 1505 1508 1511 1511 1509 1509 1509 1509 1508 1507 1507 1508 1508 1509 1508 1507 1506 1506 1506 1506 1506 1506 1505 1505 1505 1504 1503 1502 1502 1501 1501 1501 1501 1501 1501 1502 1502 1504
1501 1502 1502 1503 1503 1503 1503 1503 1504 1504 1504 1503 1503 1502 1502 1502 1502 1501 1500 1501 1502 1502 1502 1502 1501 1500 1500 1500 1500 1500 1500 1501 1502 1503 1502 1501 1501 1501 1500 1500 1500 1500 1500 1499 1498 1499 1501 1503 1505 1508 1509 1509 1508 1508 1508 1508 1508 1508 1508 1507 1508 1508 1507 1507 1506 1506 1506 1505 1505 1505 1505 1504 1504 1503 1503 1502 1501 1500 1500 1499 1499 1499 1499 1500 1500 1501 1502
1501 1501 1502 1503 1503 1503 1503 1503 1503 1503 1503 1502 1502 1502 1501 1501 1500 1499 1498 1499 1499 1499 1499 1500 1499 1499 1499 1500 1500 1500 1500 1501 1501 1501 1501 1501 1500 1500 1500 1499 1498 1499 1500 1499 1497 1498 1499 1501 1505 1509 1510 1509 1508 1508 1508 1507 1507 1507 1506 1506 1506 1506 1505 1505 1505 1505 1505 1504 1504 1503 1503 1502 1502 1501 1501 1500 1500 1499 1498 1498 1498 1498 1498 1499 1499 1500 1500
1500 1501 1502 1503 1503 1503 1503 1502 1502 1502 1502 1502 1502 1501 1501 1500 1498 1496 1496 1497 1497 1496 1497 1498 1498 1499 1500 1500 1499 1500 1500 1500 1500 1500 1500 1499 1498 1499 1500 1498 1496 1498 1499 1497 1495 1495 1497 1500 1504 1508 1509 1509 1509 1508 1508 1507 1507 1506 1506 1505 1505 1504 1503 1503 1503 1503 1502 1502 1501 1501 1501 1500 1500 1499 1499 1498 1498 1498 1497 1496 1496 1496 1496 1497 1498 1498 1499
1500 1501 1501 1502 1502 1502 1502 1502 1502 1502 1502 1502 1502 1501 1500 1498 1496 1495 1495 1496 1496 1496 1497 1498 1498 1499 1499 1499 1499 1499 1499 1499 1499 1499 1499 1499 1498 1498 1498 1496 1496 1500 1501 1495 1492 1495 1499 1503 1507 1509 1509 1509 1509 1508 1508 1507 1507 1506 1506 1506 1505 1504 1503 1502 1501 1501 1501 1500 1499 1499 1498 1498 1497 1497 1497 1496 1495 1495 1495 1495 1494 1494 1495 1496 1496 1497 1498
1500 1501 1501 1502 1502 1502 1502 1502 1501 1501 1501 1502 1504 1504 1501 1497 1494 1492 1493 1494 1495 1496 1498 1498 1497 1497 1498 1497 1497 1498 1498 1498 1498 1497 1498 1498 1497 1496 1496 1496 1497 1500 1498 1493 1492 1497 1503 1507 1509 1509 1508 1508 1508 1508 1507 1507 1506 1505 1505 1504 1504 1503 1502 1501 1500 1499 1498 1498 1497 1497 1496 1496 1495 1495 1494 1494 1493 1493 1492 1492 1492 1493 1493 1494 1495 1496 1497
1500 1500 1501 1501 1501 1502 1502 1501 1500 1501 1503 1503 1503 1501 1499 1496 1494 1493 1494 1495 1495 1495 1497 1497 1496 1496 1496 1496 1496 1497 1497 1497 1497 1497 1497 1496 1495 1495 1497 1498 1496 1495 1493 1491 1492 1499 1505 1508 1508 1509 1508 1508 1508 1507 1506 1506 1505 1504 1503 1502 1502 1501 1500 1499 1498 1497 1496 1495 1495 1494 1493 1493 1493 1492 1492 1491 1491 1490 1490 1490 1491 1491 1492 1493 1495 1496 1497
1499 1500 1501 1502 1501 1502 1503 1502 1500 1500 1501 1500 1497 1494 1492 1492 1493 1494 1494 1494 1493 1493 1494 1494 1494 1495 1495 1495 1496 1496 1496 1496 1497 1496 1495 1495 1496 1496 1496 1495 1493 1491 1491 1492 1496 1502 1507 1508 1507 1508 1508 1507 1506 1506 1505 1504 1503 1502 1501 1500 1500 1499 1498 1497 1496 1494 1493 1492 1492 1491 1491 1490 1490 1490 1489 1488 1489 1490 1490 1489 1490 1490 1491 1492 1494 1495 1496
1499 1499 1500 1501 1501 1501 1502 1501 1500 1498 1495 1492 1489 1488 1487 1488 1490 1491 1492 1492 1492 1491 1491 1492 1492 1494 1494 1494 1495 1495 1495 1495 1495 1494 1494 1496 1498 1495 1492 1491 1490 1489 1491 1496 1501 1505 1507 1507 1506 1507 1508 1507 1506 1505 1504 1503 1502 1501 1499 1498 1497 1496 1495 1494 1493 1492 1490 1489 1488 1488 1487 1487 1487 1487 1486 1486 1486 1487 1488 1488 1489 1489 1490 1491 1493 1495 1497
1499 1499 1499 1500 1500 1500 1499 1497 1496 1493 1489 1487 1485 1485 1485 1487 1489 1489 1490 1491 1491 1490 1490 1491 1492 1492 1492 1492 1493 1493 1492 1492 1493 1492 1492 1493 1494 1490 1487 1487 1488 1490 1495 1502 1506 1506 1506 1506 1507 1507 1507 1505 1504 1503 1502 1501 1499 1498 1497 1496 1495 1494 1493 1491 1490 1489 1488 1487 1485 1484 1484 1484 1485 1485 1484 1484 1484 1484 1485 1486 1488 1488 1489 1491 1494 1496 1496
1499 1498 1498 1499 1499 1497 1494 1492 1490 1488 1486 1485 1485 1484 1485 1487 1488 1489 1490 1490 1490 1490 1490 1491 1491 1491 1490 1490 1490 1489 1489 1490 1491 1490 1488 1488 1488 1487 1486 1487 1489 1493 1498 1503 1505 1505 1506 1507 1507 1506 1505 1505 1504 1502 1500 1499 1498 1496 1495 1493 1492 1491 1490 1489 1488 1486 1485 1484 1482 1481 1480 1481 1482 1482 1482 1482 1483 1483 1483 1484 1486 1487 1488 1491 1493 1495 1495
1499 1499 1498 1497 1496 1493 1490 1488 1487 1485 1484 1484 1484 1484 1486 1487 1488 1488 1489 1489 1489 1490 1490 1489 1489 1490 1488 1487 1486 1486 1486 1487 1488 1487 1485 1485 1486 1485 1486 1489 1494 1498 1501 1503 1504 1505 1506 1507 1506 1505 1505 1504 1503 1501 1500 1498 1496 1494 1493 1491 1489 1488 1488 1486 1485 1483 1482 1480 1479 1478 1477 1477 1478 1478 1479 1480 1481 1482 1482 1483 1485 1486 1488 1490 1492 1493 1494
1498 1498 1497 1496 1495 1492 1489 1487 1486 1484 1483 1483 1484 1484 1485 1486 1487 1488 1488 1488 1488 1489 1489 1488 1489 1489 1486 1485 1486 1487 1485 1484 1484 1484 1484 1484 1483 1482 1487 1494 1499 1501 1503 1504 1504 1505 1506 1506 1506 1506 1505 1504 1503 1501 1499 1497 1495 1493 1491 1490 1488 1487 1486 1484 1482 1481 1479 1477 1476 1475 1474 1474 1475 1476 1477 1478 1480 1481 1481 1482 1483 1485 1487 1489 1490 1492 1494
1498 1496 1494 1494 1493 1491 1489 1487 1486 1484 1483 1484 1484 1485 1486 1486 1487 1487 1488 1488 1488 1488 1487 1487 1487 1486 1486 1486 1488 1487 1485 1483 1482 1482 1483 1484 1484 1485 1492 1498 1500 1500 1502 1504 1504 1504 1505 1505 1505 1505 1505 1504 1503 1501 1499 1497 1495 1493 1491 1489 1487 1485 1483 1482 1480 1479 1477 1476 1474 1473 1472 1472 1472 1473 1474 1476 1477 1479 1480 1481 1483 1485 1487 1488 1489 1491 1493
1496 1494 1492 1491 1490 1489 1488 1487 1486 1484 1484 1484 1484 1485 1486 1486 1487 1487 1487 1487 1487 1487 1486 1485 1485 1486 1486 1486 1485 1483 1483 1483 1481 1479 1482 1487 1489 1490 1494 1498 1499 1499 1501 1503 1503 1504 1505 1505 1505 1505 1504 1503 1502 1501 1499 1497 1495 1493 1490 1488 1486 1483 1482 1481 1479 1478 1476 1475 1473 1472 1471 1471 1470 1470 1471 1473 1476 1477 1479 1481 1483 1486 1487 1488 1490 1491 1493